CAPE
0 0 0 0 0 0 0 0 0 0 0 0 0 0 0 0 0 0 0 22 11 159 616 733 493 344 275 215 195 188 143 498 462 234 13 2 7 7 30 9 10 47 28 11 9 6 6 5 3
0 0 0 0 0 0 0 0 0 0 0 0 0 0 0 0 0 0 66 22 146 337 647 658 416 293 263 219 124 169 105 325 533 212 0 4 6 8 12 9 4 18 17 11 10 2 5 7 7
0 0 0 0 0 0 0 0 0 0 0 0 0 0 0 0 0 11 55 52 245 402 604 515 290 220 249 205 115 126 79 503 511 99 5 5 6 6 8 8 15 15 16 20 15 21 13 13 6
0 0 0 0 0 0 0 0 0 0 0 0 0 0 0 0 0 51 131 174 211 394 471 376 233 187 202 174 66 89 163 562 393 37 2 4 4 6 8 4 11 82 28 20 29 23 23 32 27
0 0 0 0 0 0 0 0 0 0 0 0 0 0 0 0 0 137 176 184 156 289 373 302 228 147 140 118 48 66 109 435 404 151 0 2 3 3 12 3 2 21 20 23 15 13 19 16 19
0 0 0 0 0 0 0 0 0 0 0 0 0 0 0 0 24 136 189 178 203 216 329 294 196 116 74 84 33 35 37 184 246 55 0 1 2 3 5 3 3 18 18 14 6 6 10 14 6
0 0 0 0 0 0 0 0 0 0 0 0 0 0 0 0 43 141 203 166 151 255 299 300 194 92 32 20 1 3 6 3 41 0 0 0 0 1 5 3 2 10 4 11 15 8 3 1 0
0 0 0 0 0 0 0 0 0 0 0 0 0 0 0 0 57 108 185 163 75 203 276 260 182 113 28 12 0 0 1 0 2 0 0 0 0 0 2 1 3 4 5 9 7 1 2 0 0
0 0 0 0 0 0 0 0 0 0 0 0 0 0 0 0 56 121 134 109 93 202 233 245 182 110 5 0 0 0 0 0 0 0 0 0 0 0 0 0 3 4 2 1 1 1 1 0 0
0 0 0 0 0 0 0 0 0 0 0 0 0 0 0 0 28 90 126 152 131 96 96 108 203 113 2 0 0 0 0 0 0 0 0 0 0 0 0 0 2 0 1 1 1 0 0 0 0
0 0 0 0 0 0 0 0 0 0 0 0 0 0 0 0 2 31 67 89 114 89 129 66 128 106 8 0 0 0 0 0 0 0 0 0 0 0 0 0 0 0 0 0 0 0 0 0 0
0 0 0 0 0 0 0 0 0 0 0 0 0 0 0 0 0 0 5 10 31 40 88 94 75 78 25 0 0 0 0 0 0 0 0 0 0 0 0 0 0 0 0 0 0 0 0 0 0
0 0 0 0 0 0 0 0 0 0 0 0 0 0 0 0 0 2 50 9 12 57 69 67 69 82 51 0 0 0 0 0 0 0 0 0 0 0 0 0 0 0 0 0 0 0 0 0 0
0 0 0 0 0 0 0 0 0 0 0 0 0 0 0 0 0 0 35 58 28 48 96 77 61 65 55 28 0 0 0 0 0 0 0 0 0 0 0 0 0 0 0 0 0 0 0 0 0
0 0 0 0 0 0 0 0 0 0 0 0 0 0 0 0 0 0 0 23 63 52 77 103 87 62 38 43 7 0 0 0 0 0 0 0 0 0 0 0 0 0 0 0 0 0 0 0 0
0 0 0 0 0 0 0 0 0 0 0 0 0 0 0 0 0 0 0 0 21 84 77 110 104 67 37 33 23 1 0 0 0 0 0 0 0 0 0 0 0 0 0 0 0 0 0 0 0
0 0 0 0 0 0 0 0 0 0 0 0 0 0 0 0 0 0 0 0 0 23 122 135 140 97 76 30 22 9 1 0 0 0 0 0 0 0 0 0 0 0 0 0 0 0 0 0 0
0 0 0 0 0 0 0 0 0 0 0 0 0 0 0 0 0 0 0 0 0 0 10 120 160 176 91 65 17 6 1 2 1 0 0 0 0 0 0 0 0 0 0 0 0 0 0 0 0
0 0 0 0 0 0 0 0 0 0 0 0 0 0 0 0 0 0 0 0 0 0 0 0 39 155 138 100 45 25 9 2 1 1 0 0 0 0 0 0 0 0 0 0 0 0 0 0 0
0 0 0 0 0 0 0 0 0 0 0 0 0 0 0 0 0 0 0 0 0 0 0 0 0 13 73 148 106 87 31 3 1 1 1 1 1 0 0 0 0 0 0 0 0 0 0 0 0
0 0 0 0 0 0 0 0 0 0 0 0 0 0 0 0 0 0 0 0 0 0 0 0 0 0 7 86 105 12 4 0 0 1 1 1 0 1 1 0 0 0 0 0 0 0 0 0 0
0 0 0 0 0 0 0 0 0 0 0 0 0 0 0 0 0 0 0 0 0 0 0 0 0 0 0 34 111 31 68 18 0 0 2 1 1 2 2 2 1 0 0 0 0 0 0 0 0
0 0 0 0 0 0 0 0 0 0 0 0 0 0 0 0 0 0 0 0 0 0 0 0 0 0 0 0 47 19 14 6 1 0 0 0 1 2 2 2 2 2 1 0 0 0 0 0 0
0 0 0 0 0 0 0 0 0 0 0 0 0 0 0 0 0 0 0 0 0 0 0 0 0 0 0 0 3 22 1 1 0 0 0 0 0 0 1 1 2 2 2 2 1 0 0 0 0
0 0 0 0 0 0 0 0 0 0 0 0 0 0 0 0 0 0 0 0 0 0 0 0 0 0 0 0 4 1 0 0 0 0 0 0 0 0 0 1 0 1 1 1 1 1 1 1 3
0 0 0 0 0 0 0 0 0 0 0 0 0 0 0 0 0 0 0 0 0 0 0 0 0 0 0 0 0 0 0 0 0 0 0 0 0 1 1 0 0 0 0 0 0 1 2 2 1
0 0 0 0 0 0 0 0 0 0 0 0 0 0 0 0 0 0 0 0 0 0 0 0 0 0 1 2 0 0 0 0 0 0 0 0 0 0 0 0 1 1 0 0 0 0 0 1 2
0 0 0 0 0 0 0 0 0 0 0 0 0 0 0 0 0 0 0 0 0 0 0 0 0 0 1 0 0 0 0 0 0 0 0 0 0 0 0 0 0 0 0 0 0 0 0 0 1
0 0 0 0 0 0 0 0 0 0 0 0 0 0 0 0 0 0 0 0 0 0 0 0 0 0 0 0 0 0 0 0 0 0 0 0 0 0 0 0 0 0 0 0 0 0 0 0 0
0 0 0 0 0 0 0 0 0 0 0 0 0 0 0 0 0 0 0 0 0 0 0 0 0 0 0 0 0 0 0 0 0 0 0 0 0 0 0 0 0 0 0 0 0 0 0 0 0
CIN
0 0 0 0 0 0 0 0 0 0 0 0 0 0 0 0 0 0 0 -389 -124 -205 -24 -5 -25 -50 -67 -79 -85 -77 -85 -7 -17 -60 -148 0 -1 -1 -152 -3 -2 -125 -2 -2 0 0 -1 -1 -2
0 0 0 0 0 0 0 0 0 0 0 0 0 0 0 0 0 0 -283 -391 -226 -101 -24 -16 -46 -64 -66 -74 -98 -69 -89 -26 -11 -71 0 0 0 0 0 -2 -1 -5 -2 -2 -3 -1 0 0 0
0 0 0 0 0 0 0 0 0 0 0 0 0 0 0 0 0 -332 -344 -353 -157 -83 -32 -39 -80 -87 -64 -71 -101 -76 -101 -7 -8 -103 0 0 0 0 0 -1 -5 -2 -2 -3 -1 0 0 0 0
0 0 0 0 0 0 0 0 0 0 0 0 0 0 0 0 -54 -343 -296 -236 -198 -68 -52 -63 -104 -108 -76 -71 -138 -94 -44 0 -13 -138 0 0 0 0 -1 -2 -2 -106 -4 0 0 0 0 0 -1
0 0 0 0 0 0 0 0 0 0 0 0 0 0 0 0 0 -296 -266 -234 -253 -138 -67 -86 -115 -132 -106 -101 -140 -105 -55 -7 -9 -59 0 0 0 0 0 -1 -1 -2 -3 -1 0 0 0 -1 -6
0 0 0 0 0 0 0 0 0 0 0 0 0 0 0 0 -382 -289 -253 -255 -219 -200 -103 -100 -133 -150 -146 -111 -139 -118 -106 -26 -14 -89 0 0 0 0 0 0 0 -1 -4 0 0 0 -5 -8 -14
0 0 0 0 0 0 0 0 0 0 0 0 0 0 0 0 -375 -287 -258 -259 -252 -163 -123 -100 -129 -156 -186 -180 -45 -129 -56 -32 -76 -1 0 0 0 -1 -1 0 0 0 0 -1 -2 -1 0 0 0
0 0 0 0 0 0 0 0 0 0 0 0 0 0 0 0 -378 -295 -242 -258 -309 -190 -128 -115 -132 -143 -182 -213 0 0 -2 -3 -3 -1 0 0 0 0 -3 -2 -1 0 0 -1 -1 0 0 0 0
0 0 0 0 0 0 0 0 0 0 0 0 0 0 0 0 -400 -306 -253 -290 -299 -195 -151 -124 -134 -157 -264 0 0 0 0 0 0 0 0 0 0 0 0 0 0 -1 -2 -2 -1 0 0 0 0
0 0 0 0 0 0 0 0 0 0 0 0 0 0 0 0 -404 -348 -281 -285 -299 -306 -265 -226 -147 -168 -51 0 0 0 0 0 0 0 0 0 0 0 0 0 -1 0 -2 -1 0 0 0 0 0
0 0 0 0 0 0 0 0 0 0 0 0 0 0 0 0 -109 -409 -379 -350 -324 -340 -265 -295 -204 -187 -233 0 0 0 0 0 0 0 0 0 0 0 0 0 0 -1 0 0 0 0 0 0 0
0 0 0 0 0 0 0 0 0 0 0 0 0 0 0 0 0 0 -438 -443 -445 -402 -361 -296 -271 -229 -266 0 0 0 0 0 0 0 0 0 0 0 0 0 0 0 0 0 0 0 0 0 0
0 0 0 0 0 0 0 0 0 0 0 0 0 0 0 0 0 -116 -434 -506 -512 -397 -365 -364 -319 -273 -266 0 0 0 0 0 0 0 0 0 0 0 0 0 0 0 0 0 0 0 0 0 0
0 0 0 0 0 0 0 0 0 0 0 0 0 0 0 0 0 0 -472 -444 -502 -440 -368 -368 -348 -329 -306 -323 0 0 0 0 0 0 0 0 0 0 0 0 0 0 0 0 0 0 0 0 0
0 0 0 0 0 0 0 0 0 0 0 0 0 0 0 0 0 0 0 -524 -473 -472 -418 -372 -367 -349 -378 -336 -402 0 0 0 0 0 0 0 0 0 0 0 0 0 0 0 0 0 0 0 0
0 0 0 0 0 0 0 0 0 0 0 0 0 0 0 0 0 0 0 0 -465 -451 -443 -399 -380 -384 -404 -381 -389 -33 0 0 0 0 0 0 0 0 0 0 0 0 0 0 0 0 0 0 0
0 0 0 0 0 0 0 0 0 0 0 0 0 0 0 0 0 0 0 0 0 -433 -446 -409 -391 -393 -391 -400 -423 -445 0 0 0 0 0 0 0 0 0 0 0 0 0 0 0 0 0 0 0
0 0 0 0 0 0 0 0 0 0 0 0 0 0 0 0 0 0 0 0 0 0 -554 -467 -423 -387 -393 -392 -451 -472 0 0 0 0 0 0 0 0 0 0 0 0 0 0 0 0 0 0 0
0 0 0 0 0 0 0 0 0 0 0 0 0 0 0 0 0 0 0 0 0 0 0 0 -608 -457 -385 -391 -424 -436 -458 0 0 0 0 0 0 0 0 0 0 0 0 0 0 0 0 0 0
0 0 0 0 0 0 0 0 0 0 0 0 0 0 0 0 0 0 0 0 0 0 0 0 0 -605 -519 -389 -387 -371 -390 0 0 0 0 0 0 0 0 0 0 0 0 0 0 0 0 0 0
0 0 0 0 0 0 0 0 0 0 0 0 0 0 0 0 0 0 0 0 0 0 0 0 0 0 -648 -495 -375 -211 -206 0 0 0 0 0 0 0 0 0 0 0 0 0 0 0 0 0 0
0 0 0 0 0 0 0 0 0 0 0 0 0 0 0 0 0 0 0 0 0 0 0 0 0 0 0 -600 -418 -476 -362 -379 0 0 0 0 0 0 0 0 0 0 0 0 0 0 0 0 0
0 0 0 0 0 0 0 0 0 0 0 0 0 0 0 0 0 0 0 0 0 0 0 0 0 0 0 0 -473 -456 -438 -379 -3 -4 0 0 0 0 0 0 0 0 0 0 0 0 0 0 0
0 0 0 0 0 0 0 0 0 0 0 0 0 0 0 0 0 0 0 0 0 0 0 0 0 0 0 0 -112 -428 0 -1 0 0 0 0 0 0 0 0 0 0 0 0 0 0 0 0 0
0 0 0 0 0 0 0 0 0 0 0 0 0 0 0 0 0 0 0 0 0 0 0 0 0 0 0 0 -1 -2 0 -2 0 0 0 0 0 0 0 0 0 0 0 0 0 0 0 0 0
0 0 0 0 0 0 0 0 0 0 0 0 0 0 0 0 0 0 0 0 0 0 0 0 0 0 0 0 0 0 -1 0 0 0 0 0 0 0 0 0 0 0 0 0 0 0 0 0 0
0 0 0 0 0 0 0 0 0 0 0 0 0 0 0 0 0 0 0 0 0 0 0 0 0 0 0 0 0 0 0 0 0 0 0 0 0 0 0 0 0 0 0 0 0 0 0 0 0
0 0 0 0 0 0 0 0 0 0 0 0 0 0 0 0 0 0 0 0 0 0 0 0 0 0 0 0 0 0 0 0 0 0 0 0 0 0 0 0 0 0 0 0 0 0 0 0 0
0 0 0 0 0 0 0 0 0 0 0 0 0 0 0 0 0 0 0 0 0 0 0 0 0 0 0 0 0 0 0 0 0 0 0 0 0 0 0 0 0 0 0 0 0 0 0 0 0
0 0 0 0 0 0 0 0 0 0 0 0 0 0 0 0 0 0 0 0 0 0 0 0 0 0 0 0 0 0 0 0 0 0 0 0 0 0 0 0 0 0 0 0 0 0 0 0 0
Wind_Speed
19 18 17 16 10 9 9 10 21 24 24 22 25 22 21 19 20 20 18 26 27 28 27 26 26 25 25 26 26 26 27 27 27 27 28 27 25 24 22 22 21 23 23 23 23 23 23 22 21
18 19 16 16 8 6 7 22 24 25 23 23 23 21 20 19 19 18 26 26 27 27 26 25 25 25 25 25 25 25 26 26 27 27 27 26 26 25 24 24 23 23 23 23 23 23 23 23 22
18 16 17 13 9 5 7 25 24 24 22 23 21 17 19 19 19 23 23 26 26 25 25 24 24 24 24 24 24 24 25 25 25 25 26 25 24 24 23 23 23 23 23 24 24 24 24 24 24
18 17 14 13 6 14 17 24 15 18 21 20 20 19 18 17 21 22 23 24 23 23 23 23 22 22 22 22 22 22 23 23 23 24 24 24 24 24 23 22 22 23 24 24 23 23 23 24 24
16 15 13 11 12 16 17 17 12 14 18 21 21 18 16 18 18 18 21 22 21 21 21 21 20 20 20 20 20 20 21 21 21 22 22 22 22 22 21 22 22 21 22 22 22 23 23 23 23
17 16 13 8 12 15 15 14 6 7 8 7 17 12 7 18 18 18 19 19 19 19 19 19 18 18 18 18 18 18 19 18 19 20 20 21 21 20 20 20 20 20 21 21 21 22 22 21 22
17 16 13 12 11 11 12 11 11 8 8 17 7 10 12 15 18 18 18 17 17 18 18 17 17 17 17 17 17 16 17 17 17 18 19 19 19 19 19 19 18 18 19 19 20 21 21 20 21
16 15 15 15 12 13 11 11 15 8 11 10 11 13 11 15 15 15 16 16 15 16 16 16 15 16 16 16 17 16 15 15 16 16 17 17 17 18 18 19 18 17 18 18 19 19 20 20 20
17 17 16 17 15 16 11 11 16 14 10 10 13 12 11 11 13 15 15 13 14 15 16 15 15 15 16 16 16 16 15 14 14 15 16 16 16 16 17 17 18 18 18 18 18 18 18 19 19
20 19 19 19 17 18 16 16 7 10 10 9 10 9 10 12 13 15 15 15 14 15 16 16 16 16 16 16 16 16 15 15 14 14 15 15 15 16 16 16 17 17 17 17 18 18 18 18 18
22 22 21 19 20 17 17 18 16 10 10 7 10 11 9 10 12 14 14 15 15 15 16 16 16 16 16 15 15 14 14 14 14 14 14 14 14 15 15 15 15 16 16 16 16 17 17 17 17
22 22 21 18 18 18 17 15 18 19 17 14 7 7 8 9 11 13 15 14 14 15 14 15 16 15 16 15 14 13 13 12 12 13 13 14 14 14 13 13 13 14 14 15 15 15 16 17 17
23 21 22 19 17 18 18 21 20 22 26 19 17 6 8 9 10 10 10 9 11 13 13 14 15 14 14 15 14 14 13 12 11 10 10 11 11 12 12 12 12 12 13 13 14 14 14 15 15
20 20 21 22 21 21 22 24 22 21 22 19 13 8 2 9 11 5 7 12 12 12 13 11 13 13 13 13 14 13 12 12 12 11 10 9 8 9 10 10 10 10 11 11 12 12 13 13 14
17 22 21 23 24 25 24 31 30 26 23 23 15 10 7 5 5 9 12 12 11 10 9 11 12 11 11 11 11 10 10 10 11 11 11 10 9 8 6 7 7 8 9 10 11 12 12 12 12
22 23 27 24 22 24 22 34 25 22 24 24 23 16 11 6 10 7 7 6 6 6 10 10 9 10 10 10 8 8 7 8 8 8 8 9 8 7 6 5 4 5 6 7 8 9 10 11 10
25 30 29 28 22 23 24 29 25 21 23 25 23 20 16 12 10 7 8 8 8 9 9 10 11 11 10 8 6 6 6 6 6 4 6 7 6 5 3 2 1 2 3 4 6 8 9 11 11
29 29 27 28 25 26 29 34 32 27 27 27 26 23 19 17 14 12 11 10 10 10 10 10 10 11 11 8 6 5 5 6 5 5 5 5 5 5 4 3 3 2 3 3 4 6 9 10 11
24 27 28 26 26 29 33 36 35 32 31 33 31 27 22 19 23 23 22 20 13 13 12 12 11 12 11 10 10 9 9 8 7 8 7 7 7 7 6 7 6 6 6 6 5 7 9 11 10
26 28 29 25 27 29 33 40 38 36 33 29 30 30 24 26 29 26 26 25 20 16 14 15 14 13 13 13 12 11 10 10 10 10 10 10 9 9 10 10 10 10 10 9 9 8 10 12 9
26 28 28 29 26 29 34 42 37 31 29 29 27 29 32 33 38 38 34 31 28 19 18 17 17 16 15 14 12 13 12 14 12 12 12 12 12 12 13 13 12 12 12 13 13 13 13 13 12
28 27 28 30 30 37 28 42 34 30 33 30 30 29 27 27 28 31 32 31 28 26 22 18 18 19 17 15 15 15 15 15 14 13 12 13 12 13 13 14 15 15 15 16 16 15 18 16 18
27 19 22 25 27 31 31 35 34 24 27 28 24 24 20 23 25 26 26 27 26 25 23 21 17 17 17 16 16 16 17 16 15 14 14 14 15 15 15 15 15 17 18 18 18 19 19 21 22
16 18 20 23 25 38 32 31 41 30 27 23 17 15 19 21 21 20 20 21 22 22 21 19 16 15 15 15 16 17 17 17 16 16 16 16 17 17 17 17 18 18 19 20 21 20 20 21 24
25 22 29 33 32 37 27 29 43 28 22 19 19 22 22 19 18 18 18 18 19 21 20 19 16 16 15 15 16 16 17 17 17 17 18 18 19 20 19 19 18 19 20 21 20 20 21 22 23
27 27 32 39 38 36 28 38 37 29 28 27 28 27 24 19 18 18 19 20 20 20 20 18 16 15 14 13 14 15 15 16 17 18 19 20 21 21 22 19 19 19 20 20 21 22 23 24 25
31 36 29 32 32 37 35 39 40 35 31 27 26 22 22 20 19 19 20 20 20 21 20 19 18 17 15 13 13 14 14 15 16 17 18 19 19 20 19 20 20 21 21 20 19 20 21 22 22
31 25 34 33 42 44 42 44 42 30 26 23 22 20 21 21 20 20 20 21 21 21 21 20 18 16 16 14 13 12 12 14 15 16 17 19 20 21 21 21 20 20 19 19 19 20 21 21 23
30 34 32 31 35 41 46 47 36 34 27 25 22 21 19 19 20 20 20 20 20 21 20 19 17 16 15 14 13 13 13 14 15 16 18 19 19 20 21 21 21 21 21 21 21 21 21 20 20
34 35 34 38 39 39 41 50 28 25 22 19 19 18 18 19 20 20 19 19 19 20 20 18 17 16 15 14 13 12 12 13 14 16 18 19 21 21 22 22 23 23 23 22 22 23 24 24 24
Wind_Direction
241 239 236 229 279 300 35 39 166 123 134 149 132 131 133 129 121 104 164 141 122 120 122 118 112 110 106 103 100 101 97 93 79 71 69 65 54 53 46 43 39 48 45 43 42 42 42 40 39
237 231 234 228 298 4 15 183 137 145 148 113 129 139 134 132 143 141 125 135 121 116 119 116 111 108 105 101 98 97 91 97 86 77 67 65 62 62 55 51 52 51 47 45 45 46 45 44 41
234 235 230 249 287 8 25 166 131 148 109 140 127 188 144 129 154 121 151 122 118 116 116 113 109 106 103 98 95 94 92 94 83 72 71 66 60 60 57 51 56 50 48 50 49 50 49 47 45
230 232 246 259 304 246 226 175 89 96 184 184 154 118 176 196 146 155 113 117 115 115 113 112 106 103 101 98 90 90 88 79 80 73 69 65 63 64 58 53 51 52 54 51 50 48 46 47 49
236 238 251 264 256 243 229 221 80 86 109 180 177 127 92 194 181 90 108 117 114 112 112 110 104 101 99 94 91 88 82 74 73 71 66 64 61 61 56 57 56 48 49 50 48 50 51 52 47
236 241 254 262 252 247 239 239 29 334 350 259 227 36 16 205 96 100 107 113 112 114 113 110 105 103 100 95 90 86 80 73 70 69 67 67 64 60 57 52 53 52 49 48 49 49 45 42 40
238 242 252 253 252 260 253 254 268 317 27 144 69 339 325 104 111 104 107 108 107 114 113 109 105 104 102 102 96 87 83 74 68 65 64 63 61 64 63 53 51 49 46 46 48 48 48 43 41
243 247 250 250 253 261 264 263 253 317 304 301 55 302 2 111 94 97 102 106 107 116 116 112 108 107 106 107 104 95 82 77 69 65 63 60 56 58 57 60 55 50 47 46 44 45 44 42 40
245 247 250 250 254 259 265 274 255 272 347 59 108 56 355 82 93 100 105 104 110 119 126 120 117 114 112 112 110 103 92 78 69 66 67 61 59 59 61 63 64 61 58 54 50 44 40 38 35
245 246 249 253 257 257 259 264 308 309 327 11 77 57 22 96 107 117 124 123 124 126 132 130 127 124 119 117 116 112 106 99 89 81 75 68 68 67 67 65 66 64 57 52 49 45 41 39 40
247 248 252 259 259 266 262 260 268 302 324 51 102 121 78 101 119 127 131 134 133 131 131 137 136 132 130 125 120 116 113 109 105 98 89 78 74 72 72 69 67 67 58 55 53 47 40 40 39
250 253 255 261 265 266 265 272 274 275 289 321 44 73 110 126 137 144 145 142 136 135 132 134 138 135 138 131 131 125 120 112 107 104 99 91 87 82 76 70 68 67 61 57 51 45 43 39 36
253 256 256 262 266 268 269 268 276 277 263 296 313 23 134 146 151 148 145 139 139 145 141 139 138 137 138 141 137 136 135 132 122 108 102 97 94 89 78 73 72 68 62 59 54 48 40 34 31
259 261 261 261 264 268 269 271 276 285 286 296 314 331 119 162 164 156 157 161 160 157 156 148 149 146 140 146 146 147 142 142 139 133 125 115 96 88 82 74 68 61 58 55 53 52 46 35 26
264 258 264 264 265 267 274 268 270 279 291 292 306 313 322 178 181 181 177 175 173 171 166 166 161 155 153 153 153 146 145 146 149 150 144 139 127 114 93 77 61 50 44 42 38 37 35 33 26
260 263 257 267 268 271 273 265 280 290 287 289 291 303 305 299 193 200 208 225 232 217 189 182 179 176 171 168 162 162 157 151 151 157 158 157 150 138 126 112 85 63 46 36 28 25 18 18 15
259 257 259 266 274 275 271 274 283 290 290 291 294 295 298 301 290 239 232 236 228 216 212 204 198 197 194 194 190 186 185 181 177 168 171 176 177 174 164 160 106 74 28 15 7 359 357 348 350
257 260 264 265 273 274 272 270 276 284 287 288 293 298 298 297 293 286 275 252 254 245 231 223 222 215 214 219 227 236 233 220 217 214 211 205 207 209 222 248 256 274 317 330 338 334 339 335 336
264 264 264 271 274 274 273 272 276 281 285 283 288 292 295 295 291 289 286 284 275 264 248 240 236 229 230 232 234 242 235 237 236 237 236 241 240 239 243 262 267 258 260 271 287 319 316 321 324
263 264 266 276 275 277 278 273 277 280 284 288 289 290 292 290 284 287 286 284 284 274 254 253 240 242 236 238 242 250 255 257 260 262 257 253 256 254 252 263 263 260 274 281 273 279 302 309 297
264 264 267 271 281 281 281 274 278 285 289 291 291 289 286 284 275 275 282 284 285 279 272 261 252 249 243 242 255 276 276 289 273 264 263 258 258 258 254 259 267 267 268 267 263 270 275 286 281
264 268 270 271 276 270 284 273 278 286 286 291 290 290 294 294 292 286 285 285 287 286 287 278 269 259 255 250 251 252 259 272 270 273 272 277 266 269 269 263 268 263 266 271 272 273 270 281 280
269 273 271 274 275 277 276 278 277 289 290 291 295 299 302 302 302 297 294 291 291 294 290 289 280 268 262 255 252 256 261 271 284 280 277 282 281 281 277 272 274 273 273 270 280 281 279 271 287
260 270 277 279 278 271 272 275 272 282 290 296 304 310 307 309 310 313 312 305 301 303 302 300 294 281 269 261 258 260 266 271 277 281 285 289 291 292 289 286 282 285 280 280 281 281 281 277 274
259 257 268 270 270 271 278 275 269 283 287 292 295 299 305 313 317 321 323 323 318 313 310 311 307 297 286 276 271 266 270 274 277 285 290 293 296 298 294 294 291 291 291 293 293 285 291 283 283
252 255 262 267 269 273 277 272 275 281 283 288 292 294 297 303 312 317 319 320 320 320 319 319 317 311 305 294 288 285 282 282 287 291 295 298 300 303 304 301 301 300 299 298 294 293 293 292 290
256 256 264 271 277 274 274 276 277 279 283 287 292 295 299 303 309 313 317 319 317 317 318 318 317 315 312 306 301 296 295 295 296 300 304 307 310 312 311 311 308 305 304 302 299 298 297 296 295
256 255 262 264 265 268 272 273 272 284 282 288 294 295 302 304 308 312 315 317 317 317 319 319 318 316 315 317 315 311 308 307 307 308 308 310 312 314 315 315 315 315 314 311 307 305 305 302 301
253 255 261 265 265 269 272 273 282 279 280 280 289 297 304 306 309 314 321 322 318 315 316 318 319 319 318 318 316 317 316 315 314 313 313 315 319 321 320 319 318 318 317 315 312 310 309 305 304
258 257 253 259 263 266 271 272 284 287 285 291 294 299 307 313 315 323 326 324 321 317 317 316 317 318 318 319 322 324 328 327 322 321 319 321 320 320 319 320 319 318 317 317 315 312 311 308 307